カタログに戻る

COSMOS 2251 DEB

運用中LEO
NORAD 34434·DEBRIS·🇷🇺 Russia

打ち上げ Jun 16, 1993 から Plesetsk Cosmodrome

Loading…

次のパス (今後24時間)

TLE

最新Source: Space-Track

元期: Sep 14, 2026, 00:55 UTC

1 34434U 93036SB  26257.03844109  .00003715  00000-0  21310-2 0  9995
2 34434  74.0576 260.8627 0280214 331.8037  54.7102 13.91840067877945

AllMySatでCOSMOS 2251 DEBをリアルタイム追跡

Download on the App Store